Weather History for St.-Anicet, QC

Change the Weather History Date:

Tuesday, October 16, 2012

  Actual Average Record
Temperature  
Mean Temperature 40 °F -  
Max Temperature 47 °F - - ()
Min Temperature 31 °F - - ()
Degree Days  
Heating Degree Days 25    
Moisture  
Dew Point 35 °F    
Average Humidity 70    
Maximum Humidity 95    
Minimum Humidity 53    
Precipitation  
Precipitation 0.00 in - - ()
Sea Level Pressure  
Sea Level Pressure 29.76 in    
Wind  
Wind Speed 9 mph ()    
Max Wind Speed 17 mph    
Max Gust Speed -    
T = Trace of Precipitation, MM = Missing Value Source: Averaged Metar Reports

Daily Weather History Graph

Daily Weather History Graph

Search for Another Location

Airport:

Trip Planner

Search our weather history database for the weather conditions in past years. The results will help you decide how hot, cold, wet, or windy it might be!

Date:

Astronomy

Oct. 16, 2012 Rise Set
Actual Time 7:14 AM EDT 6:09 PM EDT
Civil Twilight 6:45 AM EDT 6:39 PM EDT
Nautical Twilight 6:11 AM EDT 7:13 PM EDT
Astronomical Twilight 5:36 AM EDT 7:47 PM EDT
Moon 8:40 AM EDT (10/16) 6:45 PM EDT (10/16)
Length of Visible Light 11h 54m
Length of Day
10h 54m
New Moon, 2% of the Moon is Illuminated
Oct 16
New Moon
Oct 21
First Quarter
Oct 29
Full
Nov 6
Last Quarter
Nov 13
New

Hourly Weather History & Observations

Time (EDT) Temp. Windchill Dew Point Humidity Pressure Visibility Wind Dir Wind Speed Gust Speed Precip Events Conditions
12:00 AM 50.5 °F - 36.7 °F 59% 29.60 in - WSW 17.3 mph - N/A   Unknown
1:00 AM 47.5 °F - 37.0 °F 67% 29.63 in - WSW 12.7 mph - N/A   Unknown
2:00 AM 47 °F - 37 °F 57% 29.64 in - West 10.4 mph - -  
2:00 AM 47.1 °F - 36.7 °F 67% 29.64 in - West 10.4 mph - N/A   Unknown
3:00 AM 44.4 °F 39.0 °F 39.9 °F 84% 29.65 in - WSW 10.4 mph - N/A   Unknown
4:00 AM 42.8 °F 37.5 °F 38.3 °F 84% 29.65 in - West 9.2 mph - N/A   Unknown
5:00 AM 42.4 °F 36.1 °F 36.3 °F 79% 29.68 in - West 11.5 mph - N/A   Unknown
6:00 AM 41.9 °F 35.4 °F 35.6 °F 78% 29.70 in - West 11.5 mph - N/A   Unknown
7:00 AM 40.6 °F 33.8 °F 34.5 °F 79% 29.73 in - West 11.5 mph - N/A   Unknown
8:00 AM 41 °F - 35 °F 71% 29.75 in - West 10.4 mph - -  
8:00 AM 40.8 °F 34.5 °F 34.7 °F 79% 29.75 in - West 10.4 mph - N/A   Unknown
10:00 AM 44.2 °F 38.8 °F 34.5 °F 69% 29.77 in - West 10.4 mph - N/A   Unknown
11:00 AM 44.8 °F 39.4 °F 34.0 °F 66% 29.79 in - West 10.4 mph - N/A   Unknown
12:00 PM 45.7 °F 40.6 °F 34.2 °F 64% 29.79 in - West 10.4 mph - N/A   Unknown
1:00 PM 46.6 °F - 34.5 °F 63% 29.79 in - West 9.2 mph - N/A   Unknown
2:00 PM 47 °F - 35 °F 53% 29.80 in - West 11.5 mph - -  
2:00 PM 46.8 °F - 35.4 °F 65% 29.80 in - West 11.5 mph - N/A   Unknown
3:00 PM 46.8 °F - 35.8 °F 66% 29.80 in - West 11.5 mph - N/A   Unknown
4:00 PM 46.8 °F - 36.0 °F 66% 29.81 in - West 12.7 mph - N/A   Unknown
5:00 PM 46.9 °F - 34.7 °F 62% 29.82 in - West 9.2 mph - N/A   Unknown
6:00 PM 46.0 °F 41.4 °F 31.8 °F 58% 29.83 in - West 9.2 mph - N/A   Unknown
7:00 PM 43.5 °F 40.1 °F 31.3 °F 62% 29.84 in - West 5.8 mph - N/A   Unknown
8:00 PM 42 °F - 33 °F 59% 29.84 in - West 4.6 mph - -  
8:00 PM 42.1 °F 39.2 °F 31.5 °F 66% 29.84 in - West 4.6 mph - N/A   Unknown
9:00 PM 36.3 °F - 31.5 °F 83% 29.86 in - SSW 2.3 mph - N/A   Unknown
10:00 PM 33.3 °F - 31.1 °F 92% 29.87 in - WSW 1.2 mph - N/A   Unknown
11:00 PM 31.6 °F - 30.4 °F 95% 29.88 in - South 2.3 mph - N/A   Unknown